| time (UTC) | temp C | wind direction | speed KPH | gust KPH | rain 1hr cm | rain 24hr cm | rain mn cm | humidity % | barometer mb |
| 20260506073048 | 14 | 0 | 0.0 | 0.0 | 0.00 | 0.00 | 0.00 | 89 | 1016.9 |
| 20260506071553 | 15 | 0 | 0.0 | 0.0 | 0.00 | 0.00 | 0.00 | 89 | 1017.0 |
| 20260506061549 | 15 | 0 | 0.0 | 3.2 | 0.00 | 0.00 | 0.00 | 85 | 1016.9 |
| 20260506044551 | 16 | 155 | 0.0 | 8.0 | 0.00 | 0.00 | 0.00 | 81 | 1017.7 |
| 20260506043051 | 16 | 132 | 1.6 | 6.4 | 0.00 | 0.00 | 0.00 | 80 | 1017.7 |
| 20260506041602 | 16 | 180 | 1.6 | 4.8 | 0.00 | 0.00 | 0.00 | 79 | 1017.9 |
| 20260506040056 | 17 | 184 | 1.6 | 8.0 | 0.00 | 0.00 | 0.00 | 79 | 1017.9 |
| 20260506034600 | 17 | 182 | 4.8 | 11.3 | 0.00 | 0.00 | 0.00 | 77 | 1017.8 |
| 20260506033052 | 17 | 153 | 3.2 | 11.3 | 0.00 | 0.00 | 0.00 | 76 | 1017.9 |
| 20260506031549 | 17 | 169 | 3.2 | 11.3 | 0.00 | 0.00 | 0.00 | 75 | 1017.9 |
| 20260506030050 | 18 | 168 | 6.4 | 16.1 | 0.00 | 0.00 | 0.00 | 73 | 1017.9 |
| 20260506024601 | 18 | 128 | 3.2 | 9.7 | 0.00 | 0.00 | 0.00 | 71 | 1017.6 |
| 20260506023047 | 18 | 159 | 3.2 | 9.7 | 0.00 | 0.00 | 0.00 | 70 | 1017.8 |
| 20260506021550 | 19 | 180 | 4.8 | 16.1 | 0.00 | 0.00 | 0.00 | 68 | 1017.8 |
| 20260506020107 | 19 | 147 | 4.8 | 14.5 | 0.00 | 0.00 | 0.00 | 67 | 1017.7 |
| 20260506014607 | 20 | 182 | 9.7 | 16.1 | 0.00 | 0.00 | 0.00 | 67 | 1017.6 |
| 20260506013048 | 20 | 150 | 6.4 | 17.7 | 0.00 | 0.00 | 0.00 | 68 | 1017.3 |
| 20260506011613 | 20 | 125 | 6.4 | 14.5 | 0.00 | 0.00 | 0.00 | 68 | 1017.3 |
| 20260506010050 | 21 | 179 | 4.8 | 14.5 | 0.00 | 0.00 | 0.00 | 67 | 1016.9 |
| 20260506004604 | 21 | 168 | 9.7 | 19.3 | 0.00 | 0.00 | 0.00 | 65 | 1016.5 |
| 20260506003050 | 22 | 121 | 6.4 | 16.1 | 0.00 | 0.00 | 0.00 | 64 | 1016.2 |
| 20260506001545 | 22 | 164 | 8.0 | 17.7 | 0.00 | 0.00 | 0.00 | 63 | 1016.0 |
| 20260506000118 | 23 | 145 | 9.7 | 19.3 | 0.00 | 0.00 | 0.00 | 60 | 1016.2 |
| 20260505234554 | 24 | 169 | 4.8 | 17.7 | 0.00 | 0.00 | 0.00 | 55 | 1015.8 |
| 20260505233056 | 25 | 161 | 3.2 | 9.7 | 0.00 | 0.00 | 0.00 | 47 | 1015.7 |
| 20260505231611 | 25 | 197 | 4.8 | 12.9 | 0.00 | 0.00 | 0.00 | 43 | 1015.9 |
| 20260505224550 | 26 | 242 | 8.0 | 14.5 | 0.00 | 0.00 | 0.00 | 41 | 1016.1 |
| 20260505223052 | 27 | 234 | 6.4 | 14.5 | 0.00 | 0.00 | 0.00 | 41 | 1015.8 |
| 20260505221557 | 27 | 176 | 8.0 | 16.1 | 0.00 | 0.00 | 0.00 | 42 | 1015.8 |
| 20260505220053 | 27 | 179 | 6.4 | 16.1 | 0.00 | 0.00 | 0.00 | 40 | 1015.9 |
| 20260505214550 | 27 | 192 | 8.0 | 19.3 | 0.00 | 0.00 | 0.00 | 42 | 1015.9 |
| 20260505213052 | 27 | 190 | 6.4 | 16.1 | 0.00 | 0.00 | 0.00 | 42 | 1016.0 |
| 20260505211550 | 27 | 198 | 4.8 | 16.1 | 0.00 | 0.00 | 0.00 | 42 | 1016.0 |
| 20260505210050 | 27 | 242 | 3.2 | 16.1 | 0.00 | 0.00 | 0.00 | 43 | 1016.1 |
| 20260505204600 | 27 | 212 | 8.0 | 20.9 | 0.00 | 0.00 | 0.00 | 40 | 1016.2 |
| 20260505203059 | 26 | 240 | 6.4 | 16.1 | 0.00 | 0.00 | 0.00 | 42 | 1016.3 |
| 20260505201551 | 27 | 221 | 4.8 | 11.3 | 0.00 | 0.00 | 0.00 | 43 | 1016.3 |
| 20260505200050 | 26 | 176 | 6.4 | 16.1 | 0.00 | 0.00 | 0.00 | 41 | 1016.6 |
| 20260505194604 | 26 | 144 | 4.8 | 14.5 | 0.00 | 0.00 | 0.00 | 43 | 1016.7 |
| 20260505193052 | 27 | 238 | 6.4 | 16.1 | 0.00 | 0.00 | 0.00 | 43 | 1016.8 |
| 20260505191556 | 26 | 228 | 4.8 | 19.3 | 0.00 | 0.00 | 0.00 | 43 | 1017.2 |
| 20260505190046 | 27 | 169 | 3.2 | 20.9 | 0.00 | 0.00 | 0.00 | 45 | 1017.6 |
| 20260505184547 | 26 | 153 | 3.2 | 17.7 | 0.00 | 0.00 | 0.00 | 47 | 1017.8 |
| 20260505183054 | 27 | 197 | 9.7 | 19.3 | 0.00 | 0.00 | 0.00 | 47 | 1018.3 |
| 20260505181555 | 27 | 252 | 8.0 | 14.5 | 0.00 | 0.00 | 0.00 | 46 | 1018.4 |
| 20260505180057 | 26 | 261 | 3.2 | 11.3 | 0.00 | 0.00 | 0.00 | 47 | 1018.3 |
| 20260505174547 | 27 | 265 | 3.2 | 22.5 | 0.00 | 0.00 | 0.00 | 45 | 1018.2 |
| 20260505173059 | 26 | 167 | 8.0 | 20.9 | 0.00 | 0.00 | 0.00 | 44 | 1018.2 |
| 20260505171618 | 26 | 209 | 6.4 | 16.1 | 0.00 | 0.00 | 0.00 | 47 | 1018.2 |
| 20260505170053 | 26 | 173 | 4.8 | 16.1 | 0.00 | 0.00 | 0.00 | 46 | 1018.3 |
| 20260505164546 | 26 | 172 | 8.0 | 19.3 | 0.00 | 0.00 | 0.00 | 45 | 1018.6 |
| 20260505163045 | 25 | 214 | 4.8 | 12.9 | 0.00 | 0.00 | 0.00 | 51 | 1018.9 |
| 20260505161553 | 25 | 208 | 4.8 | 14.5 | 0.00 | 0.00 | 0.00 | 53 | 1018.8 |
| 20260505153051 | 23 | 245 | 4.8 | 12.9 | 0.00 | 0.00 | 0.00 | 59 | 1019.4 |
| 20260505151553 | 23 | 257 | 3.2 | 16.1 | 0.00 | 0.00 | 0.00 | 61 | 1019.5 |
| 20260505150110 | 23 | 208 | 8.0 | 16.1 | 0.00 | 0.00 | 0.00 | 63 | 1019.5 |
| 20260505124557 | 16 | 189 | 3.2 | 11.3 | 0.00 | 0.00 | 0.00 | 82 | 1019.2 |
| 20260505123100 | 16 | 199 | 1.6 | 6.4 | 0.00 | 0.00 | 0.00 | 87 | 1019.0 |
| 20260505121619 | 15 | 265 | 0.0 | 3.2 | 0.00 | 0.00 | 0.00 | 92 | 1018.9 |
| 20260505120047 | 13 | 0 | 0.0 | 0.0 | 0.00 | 0.00 | 0.00 | 97 | 1018.7 |
| 20260505114551 | 12 | 0 | 0.0 | 0.0 | 0.00 | 0.00 | 0.00 | 97 | 1018.8 |
| 20260505113048 | 10 | 0 | 0.0 | 0.0 | 0.00 | 0.00 | 0.00 | 96 | 1018.7 |
| 20260505111548 | 9 | 0 | 0.0 | 0.0 | 0.00 | 0.00 | 0.00 | 96 | 1018.6 |
| 20260505101546 | 8 | 0 | 0.0 | 0.0 | 0.00 | 0.00 | 0.00 | 96 | 1018.2 |
| 20260505100123 | 8 | 0 | 0.0 | 0.0 | 0.00 | 0.00 | 0.00 | 95 | 1018.1 |
| 20260505094550 | 9 | 0 | 0.0 | 0.0 | 0.00 | 0.00 | 0.00 | 95 | 1018.1 |
| 20260505093052 | 9 | 0 | 0.0 | 0.0 | 0.00 | 0.00 | 0.00 | 95 | 1018.1 |
| 20260505091616 | 9 | 0 | 0.0 | 0.0 | 0.00 | 0.00 | 0.00 | 95 | 1018.1 |
| 20260505090100 | 9 | 0 | 0.0 | 0.0 | 0.00 | 0.00 | 0.00 | 95 | 1017.9 |
| 20260505084549 | 9 | 0 | 0.0 | 0.0 | 0.00 | 0.00 | 0.00 | 95 | 1017.7 |
| 20260505083054 | 10 | 0 | 0.0 | 0.0 | 0.00 | 0.00 | 0.00 | 95 | 1017.7 |
| 20260505081550 | 10 | 0 | 0.0 | 0.0 | 0.00 | 0.00 | 0.00 | 94 | 1017.7 |